Preview of NWS' New Version of Forecast
This preview is not operational and should not be used for support decisions.

Regional Weather Roundup (RWR)

Issued by National Weather Service (NWS)

                            
000
ASUS46 KSEW 180210
RWRWA 

WASHINGTON REGIONAL WEATHER ROUNDUP
NATIONAL WEATHER SERVICE SEATTLE WA
700 PM PDT MON JUN 17 2019

NOTE:"FAIR" INDICATES FEW OR NO CLOUDS BELOW 12,000 FEET WITH NO 
SIGNIFICANT WEATHER AND/OR OBSTRUCTIONS TO VISIBILITY.

WAZ507-509-555>559-180300-
SEATTLE, TACOMA, EVERETT, AND VICINITY
  
CITY           SKY/WX    TMP DP  RH WIND       PRES   REMARKS
EVERETT        PTSUNNY   68  56  65 N7        30.14F                  
BOEING FIELD   PTSUNNY   76  52  43 SE5       30.11S                  
RENTON         PTSUNNY   76  53  44 W5        30.11S                  
SEATAC AIRPORT PTSUNNY   74  54  49 S8        30.13S                  
JBLM-MCCHORD   MOSUNNY   76  64  67 W7        30.12S                  
PUYALLUP       FAIR      75  57  53 CALM      30.13S                  
BREMERTON      CLOUDY    73  58  59 S7        30.12S                  
JBLM-FT LEWIS  MOSUNNY   75  63  66 W10       30.11S                  
TACOMA NARROWS MOSUNNY   72  56  57 S8        30.12S                  
$$
 
WAZ001-503-506-510-514-515-180300-
NORTH INTERIOR
  
CITY           SKY/WX    TMP DP  RH WIND       PRES   REMARKS
BELLINGHAM     MOSUNNY   67  55  65 S14G23    30.07F                  
FRIDAY HARBOR  MOSUNNY   70  53  54 SW9       30.08F                  
EASTSOUND      CLOUDY    68  55  64 S10       30.06S                  
PORT ANGELES   SUNNY     58  54  86 W17G26    30.15R                  
EDIZ HOOK      MOCLDY    58  53  84 W22G29    30.13F                  
PORT TOWNSEND  FAIR      70  57  64 CALM      30.11F                  
NAS WHIDBEY    PTSUNNY   63  53  70 SW16G22   30.15S                  
ARLINGTON      PTSUNNY   68  56  65 NW9       30.14S                  
BURLINGTON     SUNNY     70  55  60 SW12G23   30.12S                  
$$
 
WAZ020-022-039-040-504-511-512-180300-
SOUTHWEST INTERIOR
  
CITY           SKY/WX    TMP DP  RH WIND       PRES   REMARKS
SHELTON        MOSUNNY   71  55  56 SW18G25   30.10S                  
OLYMPIA        MOSUNNY   73  55  53 SW9       30.13R                  
CHEHALIS       FAIR      72  57  60 NW10      30.16S                  
KELSO          MOSUNNY   70  58  65 W12G17    30.15R                  
VANCOUVER      SUNNY     77  55  46 N9G18     30.10R                  
SCAPPOOSE, OR  SUNNY     77  53  43 NW10G18   30.10R                  
PORTLAND, OR   MOSUNNY   78  55  44 NW14G22   30.10R                  
$$
 
WAZ021-516-517-180300-
WASHINGTON COAST
  
CITY           SKY/WX    TMP DP  RH WIND       PRES   REMARKS
FORKS          CLOUDY    60  55  83 NW6       30.19S                  
HOQUIAM        CLOUDY    59  57  93 W14       30.19F                  
ASTORIA, OR    CLOUDY    60  55  83 NW8       30.20F                  
$$
 
WAZ019-023-024-040-567>569-180300-
CASCADE MOUNTAINS AND COLUMBIA GORGE
  
CITY           SKY/WX    TMP DP  RH WIND       PRES   REMARKS
STAMPEDE PASS  PTSUNNY   60  48  64 VRB6      30.19R                  
TROUTDALE, OR  MOSUNNY   79  57  46 NW8       30.09S                  
HOOD RIVER, OR PTCLDY    79  54  41 SW5       30.04S                  
THE DALLES, OR SUNNY     81  53  37 W24G36    29.95R                  
$$

WAZ026-027-041>044-520-521-180300-
EAST SLOPES
  
CITY           SKY/WX    TMP DP  RH WIND       PRES   REMARKS
OMAK           SUNNY     89  45  21 S12       29.85S                  
WENATCHEE      MOSUNNY   83  42  23 W18G26    29.90R                  
ELLENSBURG     MOSUNNY   76  49  38 NW28G38   29.98R                  
YAKIMA         MOSUNNY   85  44  23 NW18G25   29.93R                  
SUNNYSIDE ARPT PTCLDY    87  48  25 W15       29.89                   
YAKIMA TC      FAIR      83  39  20 NW20      29.94R                  
$$

WAZ028-034-035-180300-
COLUMBIA BASIN
  
CITY           SKY/WX    TMP DP  RH WIND       PRES   REMARKS
EPHRATA        SUNNY     88  44  21 SW15      29.88S                  
MOSES LAKE     SUNNY     91  45  20 SW9       29.89S                  
PASCO          MOSUNNY   92  46  20 S12       29.87S                  
RICHLAND ARPT  PTCLDY    92  48  22 S12       29.86S                  
HERMISTON, OR  SUNNY     89  46  22 W7        29.89R                  
$$

WAZ036>038-180300-
NORTHEAST WASHINGTON
  
CITY           SKY/WX    TMP DP  RH WIND       PRES   REMARKS
SPOKANE GEIGER MOSUNNY   83  48  29 W9        29.95R                  
SPOKANE FELTS  MOSUNNY   83  49  30 NW5       29.92S                  
FAIRCHILD AFB  MOSUNNY   82  49  31 SW9       29.95S                  
COEURDALENE,ID MOSUNNY   80  55  42 W5        29.95S                  
DEER PARK      MOSUNNY   82  50  32 SW5       29.94S                  
$$

WAZ029>033-180300-
SOUTHEAST WASHINGTON
  
CITY           SKY/WX    TMP DP  RH WIND       PRES   REMARKS
PULLMAN        SUNNY     79  51  37 W8        29.99F                  
LEWISTON, ID   SUNNY     87  51  28 W9        29.91S                  
WALLA WALLA    SUNNY     85  47  26 S5        29.93S                  
PENDLETON, OR  SUNNY     84  48  28 NW7       29.94S                  
$$